[[{"header":{"parameterUnit":"m.s-1","parameterCategory":1,"la1":30.2991,"la2":30.254,"lo1":-89.0895,"lo2":-89.0444,"dy":0.0017,"dx":0.0017,"nx":28,"ny":28,"refTime":"2023-10-17T03:00:00:Z","depth":0,"parameterNumber":2,"parameterNumberName":"U-component_of_WINDS"},"data":[0,0,0,0,0,0,0,0,0,0,0,0,0,0,0,0,0,0,0,0,0,0,0,0,0,0,0,0,0,0,0,0,0,0,0,0,0,0,0,0,0,0,0,0,0,0,0,0,0,0,0,0,0,0,0,0,0,0,0.7078,0.7076,0,0.6935,0.6933,0.6932,0.6821,0.682,0.6819,0.6818,0.6668,0.6665,0.6662,0,0,0,0,0,0,0,0,0,0,0,0,0,0.7252,0.725,0.7078,0.7076,0.7074,0.6935,0.6933,0.6931,0.6821,0.682,0.6818,0.6817,0.6669,0.6666,0.6662,0,0,0,0,0,0,0,0,0,0,0,0,0,0.715,0.7249,0.7078,0.7003,0.6994,0.6936,0.6933,0.6931,0.6821,0.682,0.6818,0.6816,0.667,0.6666,0.6662,0.6666,0,0,0.6648,0.6646,0,0,0,0,0,0,0,0,0.7156,0.7143,0.7015,0.7008,0.6998,0.6894,0.694,0.6842,0.6822,0.6887,0.6818,0.6816,0.6744,0.6734,0.671,0.6658,0.6652,0.6647,0.6645,0.6643,0.6641,0,0,0,0,0,0,0,0.7163,0.7149,0.7021,0.7014,0.7003,0.6975,0.6959,0.6921,0.6826,0.6881,0.6873,0.6857,0.6739,0.6715,0.6706,0.665,0.6648,0.6644,0.6641,0.6639,0.6593,0.6595,0,0,0,0,0,0,0.7182,0.7156,0.7026,0.7017,0.7075,0.6973,0.6955,0.6929,0.6826,0.6809,0.6859,0.6853,0.6723,0.6711,0.67,0.6697,0.6643,0.6639,0.6636,0.6592,0.6594,0.6595,0,0,0,0,0,0,0.7186,0.7172,0.7031,0.7084,0.7064,0.6972,0.6944,0.6927,0.6902,0.681,0.6792,0.6851,0.6722,0.6707,0.6675,0.669,0.6637,0.6632,0.659,0.6592,0.6594,0.6692,0,0,0,0,0,0,0.7192,0.7174,0.7175,0.7085,0.7062,0.701,0.6945,0.6925,0.6895,0.6886,0.6798,0.6782,0.6719,0.6682,0.6671,0.6683,0.6629,0.6588,0.6591,0.6594,0.6687,0.6697,0.6706,0,0,0,0,0,0.7199,0.7208,0.7176,0.7161,0.7061,0.7011,0.6997,0.6926,0.6897,0.6897,0.6837,0.6784,0.6691,0.668,0.6666,0.6677,0.6587,0.659,0.6593,0.6682,0.6695,0.6706,0,0,0,0,0,0,0.7301,0.7194,0.7158,0.7138,0.7085,0.6992,0.699,0.6942,0.6894,0.6888,0.68,0.6781,0.6759,0.6715,0.6705,0.6675,0.6632,0.6633,0.6705,0.6716,0.6725,0.6735,0.6625,0,0,0,0,0,0.7321,0.729,0.7199,0.719,0.7165,0.7083,0.7058,0.7008,0.6948,0.6925,0.6863,0.6806,0.6764,0.6738,0.6694,0.6681,0.6659,0.6682,0.6691,0.67,0.67,0.6689,0.6698,0.6606,0.6606,0.6606,0,0,0.7363,0.7301,0.7286,0.7209,0.7161,0.713,0.7064,0.7034,0.7009,0.692,0.6886,0.6839,0.677,0.6748,0.6734,0.671,0.6722,0.6704,0.6711,0.6707,0.6694,0.6702,0.671,0.6608,0.6608,0.6608,0,0,0.7422,0.7373,0.7359,0.7314,0.7243,0.7188,0.7186,0.7101,0.7066,0.7032,0.6964,0.6933,0.6862,0.6816,0.6783,0.6826,0.6775,0.6814,0.6863,0.6854,0.6861,0.6867,0.6881,0.6887,0.6816,0.6816,0.6816,0,0.7481,0.7432,0.7359,0.7332,0.73,0.7219,0.7205,0.7164,0.7083,0.7062,0.7036,0.6946,0.6894,0.6859,0.687,0.6846,0.6839,0.6823,0.6866,0.6871,0.6876,0.6888,0.6894,0.6821,0.6821,0.682,0.682,0,0.7509,0.7476,0.7474,0.7399,0.7366,0.7346,0.7269,0.7245,0.7198,0.7146,0.7111,0.7046,0.6988,0.6976,0.693,0.6935,0.6922,0.6883,0.6837,0.6891,0.6901,0.6905,0.6829,0.6827,0.6825,0.6824,0,0,0.7626,0.7511,0.7512,0.7476,0.7393,0.7366,0.7342,0.7286,0.7266,0.7214,0.719,0.7133,0.7097,0.706,0.7008,0.7,0.7036,0.6961,0.6958,0.6976,0.7036,0.7065,0.7072,0.7003,0.7004,0.7004,0.7042,0,0.767,0.7624,0.7558,0.7533,0.7501,0.7425,0.7404,0.735,0.7302,0.7267,0.7212,0.7172,0.7128,0.7105,0.7094,0.7035,0.7047,0.7031,0.6979,0.6978,0.6997,0.7077,0.7107,0.7145,0.7045,0.7046,0.7046,0,0.7716,0.7668,0.7641,0.756,0.7544,0.7527,0.747,0.7438,0.7376,0.7341,0.7301,0.7245,0.7215,0.7176,0.7132,0.7123,0.7098,0.7066,0.7066,0.7057,0.7014,0.7068,0.7156,0.7161,0.7052,0.7051,0.7051,0,0.7802,0.7731,0.7705,0.7678,0.7584,0.7573,0.7533,0.747,0.744,0.739,0.737,0.7318,0.7288,0.7249,0.718,0.7158,0.7144,0.7099,0.7112,0.7114,0.7111,0.7112,0.7194,0.7099,0.7099,0.7099,0.7099,0,0.7857,0.7843,0.7743,0.7727,0.7709,0.7632,0.7616,0.7569,0.7513,0.7486,0.7417,0.7393,0.7305,0.727,0.7216,0.7188,0.7176,0.7145,0.7131,0.715,0.7154,0.7131,0.7126,0.71,0.71,0.7099,0.7099,0,0.795,0.7882,0.7849,0.7763,0.7742,0.7732,0.7658,0.7639,0.7587,0.7553,0.7541,0.7459,0.7414,0.7343,0.7277,0.724,0.7222,0.7198,0.7243,0.7234,0.7251,0.725,0.732,0.7324,0.7229,0.723,0.7231,0,0.7989,0.7976,0.789,0.7867,0.783,0.7795,0.7765,0.769,0.7661,0.759,0.7579,0.753,0.7486,0.7419,0.7352,0.7301,0.7275,0.7303,0.7267,0.7287,0.7274,0.7275,0.7272,0.7311,0.7313,0.7314,0.7315,0,0.8064,0.8032,0.7992,0.794,0.7907,0.7862,0.7814,0.7799,0.7713,0.7685,0.7639,0.7605,0.7539,0.749,0.743,0.7388,0.7337,0.7327,0.7327,0.7346,0.7372,0.7357,0.7264,0.7325,0.7324,0.7323,0.7323,0.7322,0.8129,0.8114,0.8052,0.8009,0.7966,0.7923,0.7901,0.7847,0.7808,0.7748,0.7706,0.7664,0.7601,0.7516,0.7477,0.7441,0.7419,0.7419,0.7419,0.742,0.7427,0.738,0.743,0.743,0.743,0.7429,0.7429,0,0.82,0.8156,0.8118,0.8054,0.8021,0.7978,0.7922,0.7897,0.786,0.7807,0.7766,0.7714,0.7666,0.7597,0.7545,0.753,0.7505,0.7518,0.7517,0.7508,0.7451,0.7455,0.7539,0.7539,0.7539,0.7539,0.7539,0.7539,0.8232,0.8205,0.8165,0.8115,0.8071,0.8029,0.8002,0.7961,0.7919,0.7864,0.7824,0.778,0.772,0.7663,0.7618,0.7598,0.7581,0.7602,0.7575,0.7522,0.7512,0.7503,0.7506,0.7599,0.7599,0.7635,0.7636,0.7636]},{"header":{"parameterUnit":"m.s-1","parameterCategory":1,"la1":30.2991,"la2":30.254,"lo1":-89.0895,"lo2":-89.0444,"dy":0.0017,"dx":0.0017,"nx":28,"ny":28,"refTime":"2023-10-17T03:00:00:Z","depth":0,"parameterNumber":3,"parameterNumberName":"V-component_of_WINDS"},"data":[0,0,0,0,0,0,0,0,0,0,0,0,0,0,0,0,0,0,0,0,0,0,0,0,0,0,0,0,0,0,0,0,0,0,0,0,0,0,0,0,0,0,0,0,0,0,0,0,0,0,0,0,0,0,0,0,0,0,0.5252,0.5252,0,0.5228,0.5228,0.5228,0.5202,0.5202,0.5201,0.5201,0.5176,0.5176,0.5175,0,0,0,0,0,0,0,0,0,0,0,0,0,0.5275,0.5275,0.5252,0.5252,0.5252,0.5228,0.5228,0.5227,0.5202,0.5202,0.5201,0.5201,0.5176,0.5176,0.5175,0,0,0,0,0,0,0,0,0,0,0,0,0,0.526,0.5275,0.5252,0.5236,0.5235,0.5228,0.5228,0.5227,0.5202,0.5202,0.5201,0.5201,0.5176,0.5176,0.5175,0.5183,0,0,0.5174,0.5173,0,0,0,0,0,0,0,0,0.526,0.5259,0.5239,0.5237,0.5235,0.5218,0.5227,0.5212,0.5202,0.5215,0.5201,0.52,0.519,0.5189,0.5185,0.5182,0.518,0.5174,0.5173,0.5173,0.5173,0,0,0,0,0,0,0,0.5262,0.526,0.5243,0.5239,0.5237,0.523,0.5227,0.5224,0.5206,0.5213,0.5212,0.5209,0.5189,0.5186,0.5184,0.518,0.5174,0.5173,0.5173,0.5173,0.5179,0.518,0,0,0,0,0,0,0.5265,0.5261,0.5243,0.5242,0.5247,0.523,0.5227,0.5224,0.5206,0.5202,0.521,0.5208,0.5187,0.5185,0.5183,0.519,0.5173,0.5173,0.5172,0.5179,0.5179,0.518,0,0,0,0,0,0,0.5266,0.5264,0.5244,0.5251,0.5248,0.523,0.5227,0.5224,0.522,0.5203,0.5199,0.5209,0.5186,0.5184,0.5183,0.5189,0.5172,0.5172,0.5178,0.5179,0.518,0.5204,0,0,0,0,0,0,0.5267,0.5264,0.5268,0.5251,0.5248,0.5245,0.5227,0.5224,0.5219,0.5217,0.5202,0.5199,0.5186,0.5184,0.5182,0.5188,0.5172,0.5178,0.5179,0.5179,0.5203,0.5205,0.5208,0,0,0,0,0,0.5267,0.5276,0.5268,0.5266,0.5251,0.5245,0.5243,0.5228,0.522,0.5223,0.5211,0.5199,0.5188,0.5184,0.5182,0.5187,0.5177,0.5178,0.5179,0.5201,0.5205,0.5208,0,0,0,0,0,0,0.5294,0.5273,0.5264,0.5267,0.5258,0.5241,0.5244,0.5233,0.5226,0.5224,0.5206,0.5202,0.5203,0.5195,0.519,0.5193,0.5181,0.5182,0.5198,0.5201,0.5204,0.5206,0.5171,0,0,0,0,0,0.53,0.5297,0.5279,0.5283,0.5279,0.5262,0.5259,0.5248,0.5238,0.5234,0.5223,0.5213,0.5207,0.5204,0.5197,0.5201,0.5196,0.5204,0.5206,0.5209,0.521,0.5209,0.5212,0.5184,0.5184,0.5184,0,0,0.5312,0.5301,0.53,0.5288,0.528,0.5277,0.5259,0.5257,0.5255,0.5234,0.5232,0.5223,0.521,0.5211,0.5211,0.5204,0.5216,0.521,0.5212,0.5212,0.5211,0.5214,0.5216,0.5184,0.5184,0.5184,0,0,0.5334,0.5325,0.5327,0.5319,0.5306,0.5295,0.5295,0.5279,0.5272,0.527,0.5253,0.525,0.524,0.5232,0.5226,0.5242,0.5231,0.5241,0.5255,0.5255,0.5257,0.5259,0.5264,0.5266,0.5242,0.5242,0.5242,0,0.5351,0.5346,0.533,0.5328,0.5323,0.5303,0.5305,0.5297,0.5283,0.528,0.5273,0.526,0.525,0.5248,0.5252,0.5248,0.5247,0.5243,0.5258,0.526,0.5261,0.5266,0.5268,0.5243,0.5243,0.5243,0.5243,0,0.5368,0.5365,0.5368,0.5354,0.5349,0.5349,0.5332,0.5329,0.5318,0.5307,0.5303,0.5291,0.5281,0.528,0.5269,0.5275,0.5272,0.5262,0.525,0.5266,0.527,0.5271,0.5245,0.5244,0.5244,0.5244,0,0,0.5407,0.5383,0.5384,0.5377,0.5361,0.5358,0.5356,0.5346,0.5343,0.5334,0.5331,0.5323,0.5313,0.5307,0.5295,0.5295,0.5307,0.5284,0.5284,0.5289,0.5312,0.532,0.5322,0.5299,0.5299,0.5299,0.5313,0,0.5426,0.5422,0.5406,0.5407,0.5403,0.5383,0.5382,0.5371,0.536,0.5355,0.5342,0.5336,0.5324,0.532,0.5319,0.5306,0.5312,0.5305,0.5296,0.5296,0.53,0.5324,0.5333,0.5347,0.5314,0.5315,0.5315,0,0.5447,0.5438,0.5439,0.5421,0.5419,0.5418,0.5407,0.5402,0.5389,0.538,0.5372,0.5359,0.5355,0.5343,0.5337,0.5332,0.5327,0.532,0.532,0.5319,0.5307,0.5324,0.5351,0.5353,0.5317,0.5317,0.5317,0,0.5475,0.5463,0.5462,0.5456,0.5436,0.5435,0.5426,0.5413,0.5407,0.5397,0.5393,0.5383,0.5377,0.5369,0.5352,0.5345,0.5347,0.5335,0.534,0.534,0.5342,0.5342,0.5368,0.5339,0.5339,0.5339,0.5339,0,0.5498,0.5499,0.5474,0.5473,0.5473,0.5454,0.5454,0.5443,0.5431,0.5427,0.5409,0.5405,0.5383,0.5377,0.5363,0.536,0.5357,0.535,0.5347,0.5352,0.5353,0.5349,0.5347,0.5339,0.5339,0.5339,0.5339,0,0.5529,0.5513,0.551,0.549,0.5485,0.5485,0.5468,0.5466,0.5453,0.5448,0.5446,0.5425,0.5417,0.5399,0.5385,0.5376,0.5375,0.5369,0.538,0.5378,0.5384,0.5384,0.5409,0.5411,0.538,0.5381,0.5381,0,0.5545,0.5545,0.5525,0.5521,0.5513,0.5507,0.5501,0.5481,0.5476,0.546,0.5459,0.5449,0.544,0.5426,0.541,0.5399,0.5392,0.5402,0.5391,0.5395,0.5392,0.5392,0.5392,0.5405,0.5405,0.5405,0.5406,0,0.5575,0.5566,0.5559,0.5548,0.5541,0.5531,0.5521,0.5518,0.5496,0.549,0.5481,0.5474,0.5459,0.5449,0.5435,0.5425,0.5411,0.5409,0.541,0.5415,0.5421,0.5418,0.5387,0.5409,0.5409,0.5408,0.5408,0.5408,0.5599,0.5598,0.5583,0.5574,0.5564,0.5554,0.5551,0.5537,0.5529,0.5516,0.5504,0.5496,0.548,0.546,0.5451,0.5443,0.5437,0.5438,0.5438,0.5439,0.5441,0.5422,0.5441,0.5441,0.544,0.544,0.544,0,0.5627,0.5616,0.5609,0.5594,0.5587,0.5574,0.5561,0.5556,0.5549,0.5536,0.5527,0.5515,0.5504,0.5487,0.5474,0.5471,0.5464,0.5469,0.5469,0.5466,0.5447,0.5448,0.5474,0.5474,0.5474,0.5474,0.5474,0.5474,0.5641,0.5638,0.5627,0.5618,0.5607,0.5599,0.5592,0.5582,0.5571,0.5559,0.555,0.5539,0.5523,0.5509,0.5498,0.5493,0.5489,0.5495,0.5488,0.5471,0.5468,0.5465,0.5465,0.5495,0.5495,0.5508,0.5508,0.5508]}]]